Location: Wayah Bald
(35.1806°N, 83.5603°W)
Time: 14:36:55
(UTC-04:00)

Meteor 1-27 Rocket - Visible Passes

Search period start: 31 October 2014 00:00
Search period end: 09 November 2014 23:00
Orbit: 830 x 911 km, 81.3° (Epoch: 30 October)

Date Brightness Start Highest point End Pass type
(mag) Time Alt. Az. Time Alt. Az. Time Alt. Az.
01 Nov 6.4 07:27:28 10° NNE 07:30:47 16° ENE 07:34:05 10° ESE visible
02 Nov 6.4 06:21:16 10° NNE 06:24:42 17° ENE 06:28:07 10° ESE visible
03 Nov 6.3 06:15:04 10° NNE 06:18:37 17° ENE 06:22:09 10° ESE visible
04 Nov 6.3 06:08:53 10° NNE 06:12:33 18° ENE 06:16:11 10° ESE visible
04 Nov 5.8 19:16:59 10° SSE 19:17:18 11° SSE 19:17:18 11° SSE visible
05 Nov 6.3 06:02:42 10° NNE 06:06:28 19° ENE 06:10:12 10° ESE visible
05 Nov 5.2 19:10:50 10° SSE 19:12:51 20° SE 19:12:51 20° SE visible
05 Nov 6.1 20:54:07 10° SW 20:55:24 16° SW 20:55:24 16° SW visible
06 Nov 6.3 05:56:30 10° NNE 06:00:22 19° ENE 06:04:14 10° ESE visible
06 Nov 4.6 19:04:41 10° SSE 19:08:30 29° ESE 19:08:30 29° ESE visible
06 Nov 5.7 20:48:07 10° SW 20:51:04 23° WSW 20:51:04 23° WSW visible
07 Nov 6.3 05:50:20 10° NNE 05:54:17 20° ENE 05:58:14 10° ESE visible
07 Nov 4.3 18:58:32 10° SSE 19:03:38 33° E 19:04:17 32° ENE visible
07 Nov 5.5 20:42:06 10° SW 20:46:50 27° WNW 20:46:50 27° WNW visible
08 Nov 6.2 05:44:09 10° NNE 05:48:12 21° ENE 05:52:15 10° ESE visible
08 Nov 4.3 18:52:23 10° SSE 18:57:31 34° E 19:00:10 23° NE visible
08 Nov 5.6 20:36:06 10° SW 20:40:50 26° WNW 20:42:45 22° NW visible
09 Nov 6.2 05:37:59 10° NNE 05:42:07 21° ENE 05:46:15 10° ESE visible
09 Nov 4.2 18:46:14 10° SSE 18:51:25 36° E 18:56:13 11° NNE visible
09 Nov 5.7 20:30:06 10° SW 20:34:45 25° WNW 20:38:48 12° NNW visible
